[[{"header":{"parameterUnit":"m.s-1","parameterCategory":1,"la1":30.2991,"la2":30.254,"lo1":-89.0895,"lo2":-89.0444,"dy":0.0017,"dx":0.0017,"nx":28,"ny":28,"refTime":"2024-06-17T03:00:00:Z","depth":0,"parameterNumber":2,"parameterNumberName":"U-component_of_WINDS"},"data":[0,0,0,0,0,0,0,0,0,0,0,0,0,0,0,0,0,0,0,0,0,0,0,0,0,0,0,0,0,0,0,0,0,0,0,0,0,0,0,0,0,0,0,0,0,0,0,0,0,0,0,0,0,0,0,0,0,0,-5.9475,-5.9475,0,-5.9472,-5.9472,-5.9472,-5.9327,-5.9324,-5.932,-5.9316,-5.9311,-5.9315,-5.9318,0,0,0,0,0,0,0,0,0,0,0,0,0,-5.9354,-5.9357,-5.9475,-5.9475,-5.9475,-5.9472,-5.9472,-5.9472,-5.9328,-5.9323,-5.9319,-5.9315,-5.931,-5.9314,-5.9318,0,0,0,0,0,0,0,0,0,0,0,0,0,-5.9384,-5.9358,-5.9475,-5.9403,-5.9396,-5.9472,-5.9472,-5.9472,-5.9329,-5.9323,-5.9318,-5.9312,-5.9309,-5.9314,-5.9319,-5.9463,0,0,-5.9334,-5.9337,0,0,0,0,0,0,0,0,-5.9383,-5.9389,-5.9414,-5.9408,-5.9401,-5.9394,-5.9427,-5.9469,-5.933,-5.9355,-5.9316,-5.931,-5.9343,-5.9345,-5.9357,-5.9463,-5.9463,-5.9335,-5.9338,-5.934,-5.9342,0,0,0,0,0,0,0,-5.9381,-5.9388,-5.9474,-5.9414,-5.9406,-5.937,-5.9368,-5.9435,-5.9381,-5.9352,-5.9341,-5.9343,-5.9339,-5.9353,-5.9356,-5.9463,-5.9335,-5.9339,-5.9342,-5.9344,-5.9686,-5.9691,0,0,0,0,0,0,-5.9389,-5.9388,-5.9474,-5.9474,-5.9378,-5.9377,-5.9375,-5.9402,-5.9379,-5.9371,-5.9348,-5.9336,-5.9347,-5.935,-5.9355,-5.9521,-5.934,-5.9345,-5.9348,-5.968,-5.9687,-5.9693,0,0,0,0,0,0,-5.9387,-5.9398,-5.9474,-5.9428,-5.9435,-5.9385,-5.9417,-5.9405,-5.9418,-5.9377,-5.9366,-5.9372,-5.9342,-5.9348,-5.9437,-5.9519,-5.9347,-5.9352,-5.9673,-5.9682,-5.969,-5.9855,0,0,0,0,0,0,-5.9384,-5.9398,-5.9453,-5.943,-5.9438,-5.9557,-5.9422,-5.9409,-5.9428,-5.9413,-5.9396,-5.9388,-5.9338,-5.9431,-5.9442,-5.9523,-5.9356,-5.9665,-5.9677,-5.9687,-5.9842,-5.9869,-5.9892,0,0,0,0,0,-5.938,-5.9499,-5.9456,-5.9468,-5.9505,-5.9562,-5.9566,-5.9507,-5.9435,-5.9489,-5.9462,-5.9389,-5.9509,-5.9441,-5.9453,-5.9536,-5.9659,-5.9673,-5.9686,-5.9831,-5.9864,-5.9891,0,0,0,0,0,0,-5.9532,-5.9495,-5.9447,-5.9562,-5.9567,-5.9538,-5.9603,-5.9544,-5.9568,-5.9552,-5.9478,-5.9475,-5.9576,-5.9565,-5.949,-5.9674,-5.9571,-5.9588,-5.9677,-5.9707,-5.9732,-5.9731,-5.936,0,0,0,0,0,-5.9579,-5.9629,-5.9594,-5.9699,-5.9704,-5.9654,-5.9677,-5.9631,-5.9632,-5.9633,-5.9612,-5.9616,-5.9654,-5.968,-5.9713,-5.9841,-5.9834,-5.9904,-5.9929,-5.995,-5.9964,-6.0029,-6.0059,-5.9738,-5.9738,-5.9738,0,0,-5.9676,-5.9662,-5.9698,-5.9729,-5.9727,-5.9779,-5.9656,-5.9717,-5.9755,-5.9642,-5.9724,-5.971,-5.9709,-5.9818,-5.9864,-5.9812,-6.0052,-5.9967,-5.9984,-5.9986,-6.0046,-6.0077,-6.0104,-5.9747,-5.9745,-5.9744,0,0,-5.9879,-5.9875,-5.9961,-5.9962,-5.9961,-5.9927,-5.9948,-5.9929,-5.9915,-5.9997,-5.9913,-5.9957,-6.0025,-6.0027,-6.0037,-6.0244,-6.0176,-6.0257,-6.0385,-6.0449,-6.0475,-6.0497,-6.0568,-6.0595,-6.0272,-6.0272,-6.0273,0,-5.9999,-6.0075,-6.0013,-6.0079,-6.0095,-5.9996,-6.0082,-6.0086,-6.0096,-6.0109,-6.005,-6.0133,-6.0126,-6.0233,-6.0284,-6.0296,-6.0316,-6.0257,-6.0476,-6.0498,-6.0517,-6.0585,-6.0612,-6.0282,-6.0281,-6.028,-6.0279,0,-6.0222,-6.0277,-6.0347,-6.0359,-6.0383,-6.046,-6.0408,-6.0439,-6.0393,-6.0365,-6.045,-6.0438,-6.0466,-6.0489,-6.0444,-6.0591,-6.0557,-6.049,-6.0383,-6.0559,-6.062,-6.0646,-6.0296,-6.0292,-6.0289,-6.0287,0,0,-6.0518,-6.0496,-6.0522,-6.0526,-6.0519,-6.0559,-6.0632,-6.066,-6.0688,-6.0699,-6.0756,-6.0817,-6.0754,-6.0766,-6.072,-6.0778,-6.094,-6.0701,-6.07,-6.0744,-6.1099,-6.1148,-6.1179,-6.0896,-6.0901,-6.0905,-6.1098,0,-6.0712,-6.0834,-6.078,-6.0907,-6.0955,-6.0864,-6.0926,-6.0928,-6.0906,-6.0943,-6.0918,-6.0961,-6.0875,-6.0882,-6.0935,-6.0909,-6.1009,-6.0894,-6.0947,-6.095,-6.0948,-6.1212,-6.1264,-6.1447,-6.1122,-6.1126,-6.1129,0,-6.0954,-6.0976,-6.1108,-6.1092,-6.111,-6.1167,-6.1189,-6.1227,-6.1228,-6.1207,-6.1222,-6.1163,-6.1232,-6.113,-6.1223,-6.1146,-6.1165,-6.1156,-6.1162,-6.1162,-6.1048,-6.1217,-6.1504,-6.153,-6.1167,-6.1164,-6.1161,0,-6.1154,-6.1216,-6.1303,-6.131,-6.1293,-6.1335,-6.1331,-6.1326,-6.1346,-6.1366,-6.1378,-6.1406,-6.1421,-6.1443,-6.1394,-6.1324,-6.1493,-6.1387,-6.1476,-6.1478,-6.1513,-6.1511,-6.1805,-6.1531,-6.1531,-6.153,-6.153,0,-6.1375,-6.1458,-6.1392,-6.1445,-6.1536,-6.1474,-6.1566,-6.1551,-6.1548,-6.1595,-6.1519,-6.1566,-6.1499,-6.1539,-6.1501,-6.1583,-6.1591,-6.1575,-6.1563,-6.158,-6.1582,-6.1589,-6.1574,-6.1537,-6.1536,-6.1534,-6.1533,0,-6.1611,-6.157,-6.1658,-6.1636,-6.1633,-6.1701,-6.1681,-6.1729,-6.1702,-6.1764,-6.1775,-6.1732,-6.1776,-6.1729,-6.1769,-6.1744,-6.1854,-6.1825,-6.1854,-6.1844,-6.1935,-6.1927,-6.2242,-6.2279,-6.1984,-6.1987,-6.199,0,-6.1753,-6.1815,-6.1801,-6.1828,-6.1828,-6.1873,-6.1893,-6.1836,-6.1861,-6.1867,-6.1914,-6.1951,-6.1977,-6.2051,-6.2023,-6.2053,-6.2023,-6.2131,-6.2026,-6.2041,-6.2021,-6.2017,-6.2022,-6.2151,-6.2155,-6.2158,-6.216,0,-6.2009,-6.1986,-6.2019,-6.2047,-6.2074,-6.2093,-6.2105,-6.2132,-6.2072,-6.2104,-6.2148,-6.2168,-6.221,-6.2247,-6.227,-6.2264,-6.2202,-6.2194,-6.2216,-6.2232,-6.2245,-6.2237,-6.1909,-6.2186,-6.2184,-6.2182,-6.218,-6.2179,-6.22,-6.2251,-6.2249,-6.2289,-6.2293,-6.2306,-6.235,-6.2329,-6.2365,-6.2394,-6.2358,-6.2412,-6.2411,-6.2435,-6.2437,-6.2478,-6.2431,-6.2464,-6.2471,-6.2479,-6.2492,-6.2242,-6.2482,-6.2481,-6.2481,-6.248,-6.2479,0,-6.2449,-6.2444,-6.2482,-6.2502,-6.2534,-6.2475,-6.2487,-6.2516,-6.2565,-6.257,-6.2598,-6.2648,-6.2685,-6.2661,-6.2692,-6.2729,-6.2701,-6.2739,-6.2734,-6.2733,-6.2533,-6.2509,-6.276,-6.276,-6.276,-6.276,-6.276,-6.276,-6.2583,-6.2665,-6.2643,-6.2726,-6.272,-6.2772,-6.2784,-6.2796,-6.2799,-6.2859,-6.2889,-6.2874,-6.2867,-6.2897,-6.2928,-6.292,-6.2934,-6.2981,-6.2963,-6.2775,-6.2747,-6.2721,-6.2699,-6.2985,-6.2986,-6.3159,-6.3161,-6.3162]},{"header":{"parameterUnit":"m.s-1","parameterCategory":1,"la1":30.2991,"la2":30.254,"lo1":-89.0895,"lo2":-89.0444,"dy":0.0017,"dx":0.0017,"nx":28,"ny":28,"refTime":"2024-06-17T03:00:00:Z","depth":0,"parameterNumber":3,"parameterNumberName":"V-component_of_WINDS"},"data":[0,0,0,0,0,0,0,0,0,0,0,0,0,0,0,0,0,0,0,0,0,0,0,0,0,0,0,0,0,0,0,0,0,0,0,0,0,0,0,0,0,0,0,0,0,0,0,0,0,0,0,0,0,0,0,0,0,0,-0.4124,-0.4125,0,-0.4268,-0.427,-0.4271,-0.4362,-0.4362,-0.4363,-0.4363,-0.4512,-0.4515,-0.4519,0,0,0,0,0,0,0,0,0,0,0,0,0,-0.3927,-0.393,-0.4124,-0.4126,-0.4127,-0.4268,-0.427,-0.4272,-0.4361,-0.4362,-0.4363,-0.4363,-0.4511,-0.4515,-0.4519,0,0,0,0,0,0,0,0,0,0,0,0,0,-0.4036,-0.3931,-0.4123,-0.4189,-0.4196,-0.4267,-0.427,-0.4272,-0.4361,-0.4362,-0.4363,-0.4364,-0.4509,-0.4515,-0.452,-0.4537,0,0,-0.4536,-0.4538,0,0,0,0,0,0,0,0,-0.4029,-0.4043,-0.4178,-0.4185,-0.4193,-0.4298,-0.4255,-0.4361,-0.4361,-0.4299,-0.4363,-0.4364,-0.444,-0.4451,-0.4477,-0.4544,-0.455,-0.4536,-0.4539,-0.4542,-0.4543,0,0,0,0,0,0,0,-0.4022,-0.4037,-0.4181,-0.4179,-0.4189,-0.4211,-0.4228,-0.4275,-0.4364,-0.4304,-0.4311,-0.4327,-0.4445,-0.4471,-0.4481,-0.4553,-0.4536,-0.4541,-0.4544,-0.4546,-0.464,-0.4639,0,0,0,0,0,0,-0.4004,-0.403,-0.4176,-0.4185,-0.4111,-0.4214,-0.4233,-0.4263,-0.4363,-0.4379,-0.4326,-0.4331,-0.4462,-0.4474,-0.4486,-0.4512,-0.4542,-0.4547,-0.455,-0.464,-0.4639,-0.4639,0,0,0,0,0,0,-0.3999,-0.4016,-0.4171,-0.411,-0.4131,-0.4217,-0.4251,-0.4266,-0.4293,-0.438,-0.4396,-0.4337,-0.4463,-0.4479,-0.4523,-0.4518,-0.4549,-0.4554,-0.4641,-0.464,-0.4639,-0.4564,0,0,0,0,0,0,-0.3993,-0.4014,-0.4021,-0.4109,-0.4134,-0.4205,-0.425,-0.4268,-0.4301,-0.4308,-0.4394,-0.4409,-0.4465,-0.4515,-0.4528,-0.4526,-0.4558,-0.4642,-0.4641,-0.4639,-0.4567,-0.456,-0.4554,0,0,0,0,0,-0.3986,-0.3995,-0.4021,-0.4038,-0.4145,-0.4204,-0.4219,-0.4282,-0.43,-0.4309,-0.4364,-0.4407,-0.4517,-0.4519,-0.4535,-0.4534,-0.4642,-0.4641,-0.4639,-0.457,-0.4562,-0.4555,0,0,0,0,0,0,-0.3906,-0.4008,-0.4038,-0.4076,-0.413,-0.4219,-0.4232,-0.4271,-0.4322,-0.4327,-0.4403,-0.4422,-0.4458,-0.4501,-0.4501,-0.4555,-0.4584,-0.4586,-0.4526,-0.4519,-0.4513,-0.4502,-0.4562,0,0,0,0,0,-0.3892,-0.3931,-0.4019,-0.4044,-0.407,-0.4145,-0.4174,-0.4217,-0.4277,-0.4301,-0.436,-0.4417,-0.4464,-0.4494,-0.4543,-0.4573,-0.4593,-0.4581,-0.4574,-0.4569,-0.4569,-0.4587,-0.4582,-0.4634,-0.4634,-0.4634,0,0,-0.3865,-0.3926,-0.3946,-0.4029,-0.4077,-0.4115,-0.4165,-0.4204,-0.4234,-0.4308,-0.4353,-0.4397,-0.4466,-0.4503,-0.4522,-0.4539,-0.4559,-0.4567,-0.4562,-0.4566,-0.4585,-0.458,-0.4576,-0.4633,-0.4633,-0.4633,0,0,-0.3835,-0.3886,-0.3911,-0.3957,-0.4028,-0.4078,-0.4084,-0.4167,-0.4199,-0.4245,-0.4301,-0.4337,-0.4417,-0.4463,-0.4497,-0.4482,-0.4522,-0.4496,-0.4463,-0.4479,-0.4475,-0.4472,-0.4466,-0.4463,-0.4496,-0.4496,-0.4495,0,-0.3793,-0.3854,-0.392,-0.3955,-0.3989,-0.4057,-0.4083,-0.4125,-0.4208,-0.423,-0.4248,-0.4348,-0.4399,-0.4447,-0.4443,-0.4469,-0.4477,-0.4486,-0.447,-0.4468,-0.4466,-0.4461,-0.4458,-0.4492,-0.4492,-0.4493,-0.4493,0,-0.3797,-0.3838,-0.385,-0.3927,-0.3963,-0.3994,-0.4064,-0.4092,-0.4132,-0.418,-0.4225,-0.4288,-0.435,-0.4365,-0.4405,-0.4418,-0.4426,-0.4456,-0.4487,-0.4456,-0.4452,-0.4451,-0.4486,-0.4488,-0.4489,-0.449,0,0,-0.3723,-0.3834,-0.3837,-0.3872,-0.3954,-0.3987,-0.402,-0.408,-0.4102,-0.4156,-0.4185,-0.4251,-0.4278,-0.4316,-0.4362,-0.4376,-0.4359,-0.4405,-0.4408,-0.4393,-0.4376,-0.4352,-0.4349,-0.4386,-0.4386,-0.4386,-0.4369,0,-0.3705,-0.3767,-0.3826,-0.3867,-0.3905,-0.3969,-0.3997,-0.405,-0.4096,-0.4134,-0.4185,-0.4229,-0.4263,-0.4286,-0.4303,-0.4357,-0.4356,-0.4359,-0.4413,-0.4414,-0.4394,-0.4347,-0.4323,-0.4304,-0.4369,-0.4368,-0.4368,0,-0.3692,-0.3742,-0.3786,-0.3863,-0.3881,-0.3906,-0.3964,-0.4,-0.4061,-0.4093,-0.4134,-0.4182,-0.4219,-0.4245,-0.4297,-0.4298,-0.4324,-0.4353,-0.4354,-0.4361,-0.4389,-0.4352,-0.43,-0.4297,-0.4367,-0.4367,-0.4367,0,-0.3632,-0.371,-0.3747,-0.3775,-0.3865,-0.3881,-0.3919,-0.3981,-0.4012,-0.4063,-0.4084,-0.4138,-0.4168,-0.4209,-0.427,-0.4284,-0.4315,-0.4347,-0.4342,-0.434,-0.4346,-0.4344,-0.4296,-0.4362,-0.4362,-0.4363,-0.4363,0,-0.3605,-0.3629,-0.372,-0.3743,-0.3771,-0.3839,-0.3866,-0.391,-0.3964,-0.3995,-0.4054,-0.4082,-0.4161,-0.4198,-0.4246,-0.4281,-0.4294,-0.4321,-0.4333,-0.4315,-0.4312,-0.4333,-0.4336,-0.4362,-0.4362,-0.4362,-0.4362,0,-0.3543,-0.3605,-0.3648,-0.3729,-0.375,-0.3768,-0.3838,-0.3861,-0.3909,-0.3948,-0.3961,-0.4036,-0.4083,-0.4148,-0.4215,-0.4247,-0.4275,-0.4295,-0.4254,-0.4261,-0.4252,-0.4252,-0.4216,-0.4214,-0.4281,-0.4281,-0.428,0,-0.3521,-0.3541,-0.3624,-0.3649,-0.3685,-0.3725,-0.3756,-0.3823,-0.3854,-0.3924,-0.3938,-0.399,-0.4034,-0.4106,-0.4167,-0.4218,-0.424,-0.4223,-0.4248,-0.4229,-0.4238,-0.4236,-0.4238,-0.4217,-0.4216,-0.4215,-0.4215,0,-0.3477,-0.3506,-0.3549,-0.3602,-0.3637,-0.3683,-0.3731,-0.3748,-0.3825,-0.3856,-0.3904,-0.3939,-0.4006,-0.4056,-0.4115,-0.4155,-0.4197,-0.4206,-0.4208,-0.419,-0.4165,-0.4177,-0.4237,-0.4207,-0.4208,-0.4208,-0.4209,-0.4209,-0.3434,-0.3454,-0.3514,-0.356,-0.3603,-0.3646,-0.3671,-0.3721,-0.3763,-0.3823,-0.386,-0.3906,-0.3965,-0.4048,-0.4086,-0.4123,-0.414,-0.4142,-0.4143,-0.4142,-0.4135,-0.4159,-0.4134,-0.4134,-0.4134,-0.4135,-0.4135,0,-0.3391,-0.3433,-0.3474,-0.3538,-0.3574,-0.361,-0.3664,-0.3691,-0.3731,-0.3782,-0.3824,-0.3879,-0.3927,-0.399,-0.4043,-0.406,-0.4081,-0.4071,-0.4071,-0.4079,-0.4118,-0.4111,-0.4054,-0.4054,-0.4054,-0.4054,-0.4054,-0.4054,-0.3373,-0.3408,-0.3444,-0.3501,-0.3543,-0.3588,-0.3615,-0.3655,-0.3696,-0.3754,-0.3794,-0.3835,-0.3891,-0.3947,-0.3993,-0.401,-0.4026,-0.4011,-0.4034,-0.4069,-0.4076,-0.4083,-0.4077,-0.4014,-0.4014,-0.3992,-0.3992,-0.3992]}]]